Minot AFB, ND

3:55 AM CST on November 15, 2019 (GMT -0600)
Minot Air Force Base

Weather History for KMIB - September, 2019

Change the Weather History Date:

Thursday, September 12, 2019

  Actual Average Record
Temperature  
Mean Temperature 50 °F -  
Max Temperature 52 °F 69 °F 96 °F (2017)
Min Temperature 47 °F 45 °F 38 °F (2014)
Degree Days  
Heating Degree Days 16    
Moisture  
Dew Point 48 °F    
Average Humidity 96    
Maximum Humidity 100    
Minimum Humidity 93    
Precipitation  
Precipitation 1.09 in - - ()
Sea Level Pressure  
Sea Level Pressure 30.07 in    
Wind  
Wind Speed 14 mph (NNE)    
Max Wind Speed 20 mph    
Max Gust Speed 28 mph    
Visibility 7 miles    
Events Rain    
Averages and records for this station are not official NWS values.
T = Trace of Precipitation, MM = Missing Value Source: NWS Daily Summary

Daily Weather History Graph

Daily Weather History Graph

Search for Another Location

Airport or City:

Astronomy

Sep. 12, 2019 Rise Set
Actual Time 7:17 AM CDT 8:04 PM CDT
Civil Twilight 6:46 AM CDT 8:36 PM CDT
Nautical Twilight 6:08 AM CDT 9:13 PM CDT
Astronomical Twilight 5:28 AM CDT 9:53 PM CDT
Moon 7:59 PM CDT (9/12) 5:26 AM CDT (9/12)
Length of Visible Light 13h 50m
Length of Day
12h 46m
Waxing Gibbous, 98% of the Moon is Illuminated
Sep 12
Waxing Gibbous
Sep 13
Full
Sep 21
Last Quarter
Sep 28
New
Oct 5
First Quarter

Hourly Weather History & Observations

Time (CDT) Temp. Dew Point Humidity Pressure Visibility Wind Dir Wind Speed Gust Speed Precip Events Conditions
12:11 AM 51.8 °F 51.8 °F 100% 30.10 in 10.0 mi ENE 16.1 mph 24.2 mph N/A Rain Light Rain
12:16 AM 51.8 °F 51.8 °F 100% 30.11 in 10.0 mi ENE 16.1 mph 26.5 mph N/A   Light Drizzle
12:34 AM 51.8 °F 51.8 °F 100% 30.12 in 10.0 mi ENE 17.3 mph 24.2 mph N/A   Overcast
12:44 AM 51.8 °F 51.8 °F 100% 30.12 in 10.0 mi East 19.6 mph 25.3 mph N/A   Overcast
12:55 AM 51.8 °F 51.8 °F 100% 30.13 in 10.0 mi East 16.1 mph 26.5 mph N/A   Light Drizzle
12:56 AM 52.3 °F 51.3 °F 96% 30.13 in 10.0 mi East 16.1 mph 26.5 mph 0.00 in   Light Drizzle
1:20 AM 51.8 °F 51.8 °F 100% 30.13 in 10.0 mi East 17.3 mph 27.6 mph N/A   Overcast
1:38 AM 51.8 °F 50.0 °F 94% 30.13 in 10.0 mi East 19.6 mph 24.2 mph N/A Rain Light Rain
1:56 AM 51.6 °F 50.2 °F 95% 30.13 in 10.0 mi East 15.0 mph - 0.01 in Rain Light Rain
2:02 AM 51.8 °F 50.0 °F 94% 30.12 in 10.0 mi ENE 15.0 mph - N/A   Overcast
2:56 AM 51.1 °F 49.6 °F 95% 30.10 in 10.0 mi ENE 16.1 mph 25.3 mph 0.00 in   Overcast
3:01 AM 51.8 °F 50.0 °F 94% 30.10 in 10.0 mi ENE 15.0 mph 25.3 mph N/A   Overcast
3:28 AM 51.8 °F 50.0 °F 94% 30.10 in 10.0 mi ENE 13.8 mph - N/A Rain Light Rain
3:42 AM 51.8 °F 50.0 °F 94% 30.09 in 10.0 mi ENE 17.3 mph - N/A   Overcast
3:56 AM 50.9 °F 49.5 °F 95% 30.09 in 10.0 mi ENE 16.1 mph - 0.00 in   Overcast
4:11 AM 51.8 °F 50.0 °F 94% 30.10 in 10.0 mi ENE 13.8 mph - N/A   Overcast
4:26 AM 51.8 °F 50.0 °F 94% 30.10 in 10.0 mi ENE 15.0 mph 19.6 mph N/A   Overcast
4:31 AM 50.0 °F 50.0 °F 100% 30.10 in 10.0 mi ENE 13.8 mph - N/A   Overcast
4:56 AM 50.7 °F 49.3 °F 95% 30.09 in 10.0 mi ENE 15.0 mph - 0.00 in   Overcast
5:56 AM 50.4 °F 48.9 °F 95% 30.08 in 10.0 mi ENE 15.0 mph - N/A   Overcast
6:08 AM 50.0 °F 48.2 °F 94% 30.09 in 10.0 mi ENE 13.8 mph - N/A   Overcast
6:41 AM 50.0 °F 48.2 °F 94% 30.09 in 8.0 mi ENE 13.8 mph - N/A   Light Drizzle
6:56 AM 49.6 °F 48.2 °F 95% 30.09 in 7.0 mi ENE 11.5 mph - 0.00 in Rain Light Rain
7:31 AM 50.0 °F 48.2 °F 94% 30.09 in 3.0 mi ENE 12.7 mph - N/A Rain Light Rain
7:56 AM 48.9 °F 47.8 °F 96% 30.08 in 5.0 mi ENE 13.8 mph - 0.04 in Rain Light Rain
8:36 AM 48.2 °F 48.2 °F 100% 30.08 in 6.0 mi ENE 16.1 mph 21.9 mph N/A Rain Light Rain
8:56 AM 48.4 °F 47.3 °F 96% 30.08 in 4.0 mi ENE 13.8 mph - 0.04 in Rain Light Rain
9:26 AM 48.2 °F 46.4 °F 93% 30.08 in 6.0 mi ENE 13.8 mph - N/A Rain Light Rain
9:47 AM 48.2 °F 46.4 °F 93% 30.08 in 2.8 mi ENE 12.7 mph - N/A Rain Rain
9:56 AM 47.8 °F 46.8 °F 96% 30.08 in 2.0 mi ENE 9.2 mph - 0.08 in Rain Rain
10:22 AM 48.2 °F 46.4 °F 93% 30.08 in 2.8 mi ENE 11.5 mph - N/A Rain Rain
10:56 AM 47.8 °F 46.8 °F 96% 30.09 in 2.0 mi ENE 15.0 mph - 0.19 in Rain Heavy Rain
11:01 AM 48.2 °F 46.4 °F 93% 30.09 in 2.2 mi ENE 15.0 mph - N/A Rain Rain
11:06 AM 48.2 °F 46.4 °F 93% 30.09 in 2.8 mi NE 15.0 mph - N/A Rain Rain
11:16 AM 48.2 °F 46.4 °F 93% 30.08 in 3.0 mi NNE 10.4 mph - N/A Rain Heavy Rain
11:21 AM 48.2 °F 46.4 °F 93% 30.08 in 2.2 mi NE 11.5 mph - N/A Rain Heavy Rain
11:26 AM 48.2 °F 46.4 °F 93% 30.08 in 2.0 mi NE 10.4 mph - N/A Rain Heavy Rain
11:32 AM 48.2 °F 46.4 °F 93% 30.09 in 2.5 mi NE 6.9 mph - N/A Rain Rain
11:56 AM 47.8 °F 46.8 °F 96% 30.09 in 2.8 mi NE 10.4 mph - 0.18 in Rain Rain
12:01 PM 48.2 °F 46.4 °F 93% 30.09 in 2.8 mi NE 12.7 mph - N/A Rain Heavy Rain
12:26 PM 48.2 °F 46.4 °F 93% 30.08 in 2.5 mi NNE 9.2 mph - N/A Rain Heavy Rain
12:46 PM 48.2 °F 46.4 °F 93% 30.07 in 2.2 mi NNE 10.4 mph - N/A Rain Heavy Rain
12:56 PM 48.2 °F 47.1 °F 96% 30.06 in 3.0 mi NNE 11.5 mph - 0.16 in Rain Rain
12:59 PM 48.2 °F 46.4 °F 93% 30.06 in 5.0 mi NNE 11.5 mph - N/A Rain Rain
1:19 PM 48.2 °F 48.2 °F 100% 30.05 in 7.0 mi NNE 13.8 mph - N/A Rain Light Rain
1:56 PM 48.9 °F 47.8 °F 96% 30.04 in 5.0 mi NNE 10.4 mph - 0.04 in Rain Light Rain
2:01 PM 48.2 °F 48.2 °F 100% 30.04 in 8.0 mi NNE 11.5 mph - N/A Rain Light Rain
2:06 PM 50.0 °F 48.2 °F 94% 30.04 in 10.0 mi NNE 10.4 mph - N/A Rain Light Rain
2:11 PM 50.0 °F 48.2 °F 94% 30.04 in 10.0 mi NNE 10.4 mph - N/A Rain Light Rain
2:16 PM 50.0 °F 48.2 °F 94% 30.04 in 10.0 mi NNE 11.5 mph - N/A Rain Light Rain
2:26 PM 50.0 °F 48.2 °F 94% 30.04 in 10.0 mi North 10.4 mph - N/A Rain Light Rain
2:41 PM 50.0 °F 48.2 °F 94% 30.04 in 10.0 mi NNE 10.4 mph - N/A Rain Light Rain
2:46 PM 50.0 °F 48.2 °F 94% 30.03 in 10.0 mi North 11.5 mph - N/A Rain Light Rain
2:56 PM 49.1 °F 47.7 °F 95% 30.03 in 10.0 mi North 11.5 mph - 0.01 in Rain Light Rain
3:01 PM 50.0 °F 48.2 °F 94% 30.03 in 10.0 mi North 10.4 mph - N/A   Light Drizzle
3:06 PM 50.0 °F 48.2 °F 94% 30.03 in 10.0 mi North 10.4 mph - N/A Rain Light Rain
3:11 PM 50.0 °F 48.2 °F 94% 30.03 in 10.0 mi North 11.5 mph - N/A Rain Light Rain
3:56 PM 49.3 °F 47.8 °F 95% 30.04 in 2.5 mi NNE 13.8 mph - 0.03 in Rain Rain
3:57 PM 49.5 °F 48.0 °F 95% 30.04 in 2.2 mi NNE 12.7 mph - 0.02 in Rain Rain
4:02 PM 50.0 °F 48.2 °F 94% 30.04 in 2.5 mi NNE 13.8 mph - N/A Rain Rain
4:12 PM 50.0 °F 48.2 °F 94% 30.04 in 2.2 mi North 12.7 mph - N/A Rain Rain
4:17 PM 50.0 °F 48.2 °F 94% 30.05 in 3.0 mi NNE 11.5 mph - N/A Rain Rain
4:32 PM 48.2 °F 48.2 °F 100% 30.05 in 5.0 mi North 9.2 mph - N/A Rain Rain
4:42 PM 48.2 °F 48.2 °F 100% 30.05 in 8.0 mi North 11.5 mph - N/A Rain Rain
4:56 PM 48.9 °F 47.5 °F 95% 30.05 in 5.0 mi North 12.7 mph - 0.08 in Rain Rain
5:08 PM 48.2 °F 48.2 °F 100% 30.05 in 4.0 mi North 11.5 mph - N/A Rain Rain
5:48 PM 48.2 °F 48.2 °F 100% 30.05 in 7.0 mi North 12.7 mph - N/A Rain Light Rain
5:51 PM 48.2 °F 48.2 °F 100% 30.05 in 7.0 mi North 12.7 mph - N/A Rain Rain
5:56 PM 48.9 °F 47.8 °F 96% 30.05 in 8.0 mi North 13.8 mph 20.7 mph 0.07 in Rain Rain
6:06 PM 48.2 °F 48.2 °F 100% 30.05 in 10.0 mi North 12.7 mph - N/A Rain Rain
6:21 PM 48.2 °F 48.2 °F 100% 30.05 in 7.0 mi North 11.5 mph - N/A Rain Rain
6:36 PM 48.2 °F 48.2 °F 100% 30.05 in 9.0 mi North 13.8 mph - N/A Rain Rain
6:41 PM 48.2 °F 48.2 °F 100% 30.05 in 9.0 mi North 13.8 mph - N/A Rain Rain
6:56 PM 48.6 °F 47.5 °F 96% 30.05 in 10.0 mi North 13.8 mph 19.6 mph 0.07 in Rain Light Rain
7:11 PM 48.2 °F 48.2 °F 100% 30.05 in 10.0 mi North 12.7 mph - N/A Rain Light Rain
7:56 PM 48.4 °F 47.3 °F 96% 30.06 in 10.0 mi North 11.5 mph - 0.01 in Rain Light Rain
8:01 PM 48.2 °F 48.2 °F 100% 30.06 in 10.0 mi North 12.7 mph - N/A Rain Light Rain
8:26 PM 48.2 °F 46.4 °F 93% 30.03 in 10.0 mi North 10.4 mph - N/A Rain Light Rain
8:56 PM 48.2 °F 47.1 °F 96% 30.03 in 9.0 mi NNW 10.4 mph - 0.03 in Rain Light Rain
9:00 PM 48.2 °F 48.2 °F 100% 30.03 in 10.0 mi NNW 11.5 mph - N/A Rain Light Rain
9:15 PM 48.2 °F 46.4 °F 93% 30.07 in 10.0 mi North 10.4 mph - N/A Rain Light Rain
9:56 PM 47.8 °F 46.8 °F 96% 30.08 in 10.0 mi NNW 11.5 mph - 0.04 in Rain Light Rain
10:17 PM 48.2 °F 46.4 °F 93% 30.07 in 8.0 mi North 9.2 mph - N/A Rain Light Rain
10:32 PM 48.2 °F 46.4 °F 93% 30.07 in 10.0 mi NNW 11.5 mph - N/A   Light Drizzle
10:40 PM 48.2 °F 46.4 °F 93% 30.06 in 10.0 mi NNW 11.5 mph - N/A   Overcast
10:56 PM 47.8 °F 46.8 °F 96% 30.06 in 10.0 mi NNW 11.5 mph - 0.01 in   Overcast
11:01 PM 48.2 °F 46.4 °F 93% 30.06 in 10.0 mi NNW 9.2 mph - N/A   Overcast
11:16 PM 48.2 °F 46.4 °F 93% 30.05 in 10.0 mi NW 9.2 mph - N/A   Overcast
11:26 PM 48.2 °F 46.4 °F 93% 30.05 in 10.0 mi NW 10.4 mph - N/A   Overcast
11:56 PM 47.8 °F 46.8 °F 96% 30.04 in 10.0 mi NW 11.5 mph - N/A   Overcast